Groton, CT

3:46 AM EST on December 16, 2019 (GMT -0500)
Groton-New London

Weather History for KGON - November, 2019

Change the Weather History Date:

Thursday, November 14, 2019

  Actual Average Record
Temperature  
Mean Temperature 34 °F -  
Max Temperature 48 °F 51 °F 67 °F (1993)
Min Temperature 19 °F 35 °F 18 °F (1986)
Degree Days  
Heating Degree Days 32    
Moisture  
Dew Point 25 °F    
Average Humidity 65    
Maximum Humidity 86    
Minimum Humidity 53    
Precipitation  
Precipitation 0.00 in - - ()
Sea Level Pressure  
Sea Level Pressure 30.39 in    
Wind  
Wind Speed 6 mph ()    
Max Wind Speed 17 mph    
Max Gust Speed 24 mph    
Visibility 10.0 miles    
Events      
Averages and records for this station are not official NWS values.
T = Trace of Precipitation, MM = Missing Value Source: Averaged Metar Reports

Daily Weather History Graph

Daily Weather History Graph

Search for Another Location

Airport or City:

Astronomy

Nov. 14, 2019 Rise Set
Actual Time 6:34 AM EST 4:29 PM EST
Civil Twilight 6:05 AM EST 4:59 PM EST
Nautical Twilight 5:31 AM EST 5:32 PM EST
Astronomical Twilight 4:59 AM EST 6:05 PM EST
Moon 6:12 PM EST (11/14) 8:28 AM EST (11/14)
Length of Visible Light 10h 53m
Length of Day
9h 54m
Waning Gibbous, 95% of the Moon is Illuminated
Nov 14
Waning Gibbous
Nov 19
Last Quarter
Nov 26
New
Dec 4
First Quarter
Dec 12
Full

Hourly Weather History & Observations

Time (EST) Temp. Windchill Dew Point Humidity Pressure Visibility Wind Dir Wind Speed Gust Speed Precip Events Conditions
12:56 AM 21.0 °F 14.6 °F 12.0 °F 68% 30.48 in 10.0 mi NE 4.6 mph - N/A   Clear
1:56 AM 21.9 °F 14.5 °F 10.9 °F 63% 30.48 in 10.0 mi North 5.8 mph - N/A   Clear
2:56 AM 19.9 °F 13.4 °F 10.0 °F 65% 30.48 in 10.0 mi North 4.6 mph - N/A   Clear
3:56 AM 21.0 °F 13.4 °F 10.9 °F 65% 30.47 in 10.0 mi North 5.8 mph - N/A   Clear
4:56 AM 21.0 °F 14.6 °F 12.0 °F 68% 30.48 in 10.0 mi NNE 4.6 mph - N/A   Clear
5:56 AM 19.9 °F 11.1 °F 10.9 °F 68% 30.47 in 10.0 mi North 6.9 mph - N/A   Clear
6:56 AM 23.0 °F 15.8 °F 12.0 °F 63% 30.47 in 10.0 mi North 5.8 mph - N/A   Clear
7:56 AM 27.0 °F 18.7 °F 12.0 °F 53% 30.48 in 10.0 mi NNE 8.1 mph - N/A   Scattered Clouds
8:56 AM 30.9 °F 26.2 °F 17.1 °F 57% 30.48 in 10.0 mi NNE 4.6 mph - N/A   Mostly Cloudy
9:56 AM 34.0 °F 28.8 °F 21.0 °F 59% 30.47 in 10.0 mi North 5.8 mph - N/A   Overcast
10:56 AM 37.9 °F 34.4 °F 25.0 °F 60% 30.45 in 10.0 mi NNE 4.6 mph - N/A   Mostly Cloudy
11:56 AM 41.0 °F - 28.0 °F 60% 30.41 in 10.0 mi Calm Calm - N/A   Mostly Cloudy
12:45 PM 46.0 °F 39.3 °F 32.0 °F 58% 30.38 in 10.0 mi SSW 16.1 mph - N/A   Overcast
12:56 PM 46.9 °F - 32.0 °F 56% 30.38 in 10.0 mi SSW 16.1 mph - N/A   Overcast
1:56 PM 48.0 °F - 34.0 °F 58% 30.36 in 10.0 mi SSW 17.3 mph 23.0 mph N/A   Overcast
2:56 PM 46.9 °F - 34.0 °F 61% 30.35 in 10.0 mi SW 9.2 mph - N/A   Scattered Clouds
3:56 PM 46.0 °F 43.1 °F 35.1 °F 66% 30.34 in 10.0 mi WSW 5.8 mph - N/A   Mostly Cloudy
5:56 PM 39.0 °F 36.8 °F 34.0 °F 82% 30.32 in 10.0 mi NW 3.5 mph - N/A   Partly Cloudy
6:56 PM 37.0 °F 33.3 °F 33.1 °F 86% 30.31 in 10.0 mi NE 4.6 mph - N/A   Clear
7:56 PM 46.9 °F - 39.9 °F 77% 30.29 in 10.0 mi SW 10.4 mph - N/A   Clear
8:56 PM 48.0 °F - 39.9 °F 74% 30.27 in 10.0 mi West 12.7 mph - N/A   Clear
9:56 PM 48.9 °F - 39.9 °F 71% 30.28 in 10.0 mi WSW 11.5 mph 20.7 mph N/A   Mostly Cloudy
10:56 PM 46.0 °F 43.1 °F 39.0 °F 76% 30.27 in 10.0 mi WNW 5.8 mph - N/A   Partly Cloudy
11:56 PM 48.0 °F - 32.0 °F 54% 30.27 in 10.0 mi WSW 17.3 mph 24.2 mph N/A   Clear